Location: Unspecified
(0.0000°N, 0.0000°E)
Time: 17:56:37
(UTC+00:00)

STARLINK 1055 - Pass Details

Date: 15 January 2020
Orbit: 548 x 551 km, 53.0° (Epoch: 17 January)

Event Time Altitude Azimuth Distance (km) Brightness Sun altitude
Rises 18:50:48 0° 335° (NNW) 2,700 7.2 -9.7°
Reaches altitude 10° 18:53:04 10° 341° (NNW) 1,810 6.2 -10.2°
Maximum altitude 18:57:03 48° 56° (NE) 717 3.8 -11.1°
Drops below altitude 10° 19:01:02 10° 131° (SE) 1,819 6.0 -12.0°
Sets 19:03:20 0° 137° (SE) 2,715 6.9 -12.6°
